Manhattan, KS

11:34 AM CST on February 23, 2018 (GMT -0600)
Manhattan Regional

Weather History for KMHK - February, 2013

Change the Weather History Date:

Sunday, February 24, 2013

  Actual Average Record
Temperature  
Mean Temperature 28 °F 36 °F  
Max Temperature 41 °F 48 °F 66 °F (2006)
Min Temperature 14 °F 23 °F 1 °F (2003)
Degree Days  
Heating Degree Days 37 29  
Month to date heating degree days 704 780  
Since 1 July heating degree days 3634 4046  
Cooling Degree Days 0 0  
Month to date cooling degree days 0 0  
Year to date cooling degree days 0 0  
Moisture  
Dew Point 27 °F    
Average Humidity 65    
Maximum Humidity 75    
Minimum Humidity 54    
Precipitation  
Precipitation 0.01 in 0.04 in 1.37 in (2001)
Month to date precipitation 0.90 0.91  
Year to date precipitation 1.59 1.56  
Sea Level Pressure  
Sea Level Pressure 29.93 in    
Wind  
Wind Speed 6 mph (NE)    
Max Wind Speed 13 mph    
Max Gust Speed -    
Visibility 9 miles    
Events Rain    
T = Trace of Precipitation, MM = Missing Value Source: NWS Daily Summary

Daily Weather History Graph

Daily Weather History Graph

Search for Another Location

Airport or City:

Trip Planner

Search our weather history database for the weather conditions in past years. The results will help you decide how hot, cold, wet, or windy it might be!

Date:

Astronomy

Feb. 24, 2013 Rise Set
Actual Time 7:06 AM CST 6:14 PM CST
Civil Twilight 6:39 AM CST 6:41 PM CST
Nautical Twilight 6:08 AM CST 7:12 PM CST
Astronomical Twilight 5:37 AM CST 7:43 PM CST
Moon 5:26 PM CST (2/24) 6:03 AM CST (2/24)
Length of Visible Light 12h 02m
Length of Day
11h 08m
Waxing Gibbous, 99% of the Moon is Illuminated
Feb 24
Waxing Gibbous
Feb 25
Full
Mar 4
Last Quarter
Mar 11
New
Mar 19
First Quarter

Hourly Weather History & Observations

Time (CST) Temp. Windchill Dew Point Humidity Pressure Visibility Wind Dir Wind Speed Gust Speed Precip Events Conditions
12:52 AM - - - N/A% 29.93 in 7.0 mi Calm Calm - N/A   Clear
1:52 AM - - - N/A% 29.93 in 9.0 mi Calm Calm - N/A   Clear
2:52 AM - - - N/A% 29.92 in 10.0 mi South 3.5 mph - N/A   Clear
3:52 AM - - - N/A% 29.92 in 10.0 mi Calm Calm - N/A   Clear
4:52 AM - - - N/A% 29.92 in 9.0 mi Calm Calm - N/A   Clear
5:52 AM - - - N/A% 29.93 in 10.0 mi Calm Calm - N/A   Clear
6:52 AM - - - N/A% 29.94 in 8.0 mi NNE 3.5 mph - N/A   Clear
7:52 AM - - - N/A% 29.95 in 7.0 mi NNE 3.5 mph - N/A   Clear
8:52 AM - - - N/A% 29.96 in 8.0 mi NNE 4.6 mph - N/A   Unknown
9:52 AM - - - N/A% 29.97 in 10.0 mi ENE 3.5 mph - N/A   Clear
10:52 AM 35.1 °F 31.0 °F 24.1 °F 64% 29.98 in 10.0 mi NE 4.6 mph - N/A   Clear
11:52 AM 37.9 °F 32.7 °F 25.0 °F 60% 29.96 in 10.0 mi East 6.9 mph - N/A   Clear
12:52 PM 39.0 °F 31.8 °F 25.0 °F 57% 29.92 in 10.0 mi East 11.5 mph - N/A   Clear
1:52 PM 39.0 °F 32.3 °F 26.1 °F 60% 29.89 in 10.0 mi ENE 10.4 mph - N/A   Overcast
2:52 PM 39.0 °F 32.3 °F 26.1 °F 60% 29.87 in 10.0 mi ENE 10.4 mph - N/A   Overcast
3:52 PM 41.0 °F 33.9 °F 26.1 °F 55% 29.86 in 10.0 mi ENE 12.7 mph - N/A   Overcast
4:52 PM 41.0 °F 36.4 °F 27.0 °F 57% 29.88 in 10.0 mi ENE 6.9 mph - N/A   Overcast
5:52 PM 39.0 °F 34.0 °F 28.0 °F 65% 29.90 in 10.0 mi NE 6.9 mph - N/A   Overcast
6:52 PM 37.0 °F 30.4 °F 28.0 °F 70% 29.91 in 10.0 mi NE 9.2 mph - N/A   Overcast
7:52 PM 37.0 °F 30.4 °F 28.0 °F 70% 29.94 in 10.0 mi NE 9.2 mph - N/A   Overcast
8:52 PM 37.0 °F 30.4 °F 28.0 °F 70% 29.96 in 10.0 mi NE 9.2 mph - N/A   Overcast
9:52 PM 37.0 °F 28.5 °F 28.0 °F 70% 29.96 in 8.0 mi ENE 13.8 mph - 0.00 in Rain Light Rain
10:52 PM 36.0 °F 29.6 °F 28.9 °F 76% 29.97 in 10.0 mi NNE 8.1 mph - 0.01 in Rain Light Rain
11:52 PM 36.0 °F 30.3 °F 28.9 °F 76% 29.98 in 10.0 mi North 6.9 mph - 0.00 in   Overcast